Tracking 34794 objects as of 19-Jul-2026
HD Live streaming from Space Station
objects crossing your sky now

CZ-4 DEB

Track CZ-4 DEB now!
10-day predictions


NORAD ID: 20974
Int'l Code: 1990-081CG
Perigee: 774.1 km
Apogee: 791.8 km
Inclination: 98.6 °
Period: 100.4 minutes
Semi major axis: 7153 km
RCS: 0.0086 m2 (small)
Launch date: September 3, 1990
Source: People's Republic of China (PRC)
Launch site: Taiyaun Space Center, China (TSC)

Note: This is SATELLITE DEBRIS
Your satellite tracking list
Your tracking list is empty




NASA's NSSDC Master Catalog

Two Line Element Set (TLE):
1 20974U 90081CG  26199.97490792  .00000655  00000-0  24628-3 0  9995
2 20974  98.5624 198.6472 0012420 242.4935 172.9912 14.34776765854315
Source of the keplerian elements: AFSPC